Date,TemperatureHighF,TemperatureAvgF,TemperatureLowF,DewpointHighF,DewpointAvgF,DewpointLowF,HumidityHigh,HumidityAvg,HumidityLow,PressureMaxIn,PressureMinIn,WindSpeedMaxMPH,WindSpeedAvgMPH,GustSpeedMaxMPH,PrecipitationSumIn
2013-2-1,20.4,8.2,-1.6,17.0,2.0,-7.0,88,76,69,30.50,30.22,9,3,15,0.00
2013-2-2,26.6,20.9,15.2,23.0,16.4,11.0,91,82,73,30.22,30.07,10,3,16,0.00
2013-2-3,27.0,22.1,17.1,22.0,16.8,14.0,94,80,67,30.17,30.01,15,4,23,0.00
2013-2-4,34.6,26.2,16.6,27.0,21.0,15.0,92,81,72,30.02,29.82,8,2,15,0.00
2013-2-5,39.0,29.2,15.5,32.0,25.1,13.0,92,85,75,30.13,29.88,11,3,16,0.00
2013-2-6,44.8,33.7,19.7,34.0,28.8,19.0,96,83,64,30.23,30.05,8,3,15,0.00
2013-2-7,37.1,35.4,32.8,36.0,34.3,31.0,97,95,88,30.07,29.88,11,3,16,0.83
2013-2-8,32.6,28.6,25.7,31.0,25.2,22.0,94,87,81,30.40,30.07,5,1,11,0.00
2013-2-9,36.0,30.5,25.7,31.0,26.6,23.0,90,86,77,30.40,30.03,15,5,23,0.00
2013-2-10,50.3,41.6,35.1,47.0,38.6,31.0,96,89,68,30.05,29.45,18,7,28,0.52
2013-2-11,38.2,32.5,28.6,31.0,25.3,24.0,82,75,70,30.14,29.62,20,9,34,0.00
2013-2-12,38.7,30.7,26.9,28.0,25.1,23.0,91,80,64,30.17,29.95,6,2,14,0.00
2013-2-13,44.8,34.5,24.4,34.0,29.2,23.0,93,82,65,29.94,29.76,8,2,13,0.00
2013-2-14,39.7,36.5,31.7,33.0,31.2,28.0,91,81,71,30.06,29.72,14,4,19,0.00
2013-2-15,33.2,25.9,19.3,28.0,16.6,12.0,87,69,47,30.28,30.07,13,4,17,0.00
2013-2-16,28.3,19.0,11.6,17.0,11.6,7.0,85,73,61,30.28,30.19,11,2,16,0.00
2013-2-17,36.8,25.3,12.5,25.0,16.9,8.0,86,71,54,30.24,29.91,13,5,21,0.00
2013-2-18,53.0,37.9,21.8,47.0,32.4,19.0,96,81,64,29.91,29.48,15,6,25,0.42
2013-2-19,22.3,15.8,9.9,17.0,9.5,5.0,87,76,66,30.33,29.81,13,6,20,0.00
2013-2-20,21.0,12.2,2.3,13.0,6.3,-2.0,86,77,66,30.49,30.34,8,1,11,0.00
2013-2-21,28.4,21.2,10.5,24.0,18.0,8.0,94,87,80,30.42,29.91,8,2,18,0.00
2013-2-22,31.0,27.8,24.6,30.0,24.7,19.0,97,88,78,30.01,29.80,11,3,16,0.00
2013-2-23,29.5,23.8,18.8,21.0,18.3,15.0,86,79,69,30.03,29.99,7,2,11,0.00
2013-2-24,41.1,26.4,11.4,26.0,20.1,10.0,93,78,55,30.16,30.04,5,1,8,0.15
2013-2-25,43.1,33.4,22.7,34.0,28.3,21.0,94,82,66,30.14,29.87,6,1,10,0.02
2013-2-26,35.1,32.3,30.0,31.8,30.3,28.0,96,92,77,29.86,29.51,13,3,14,0.00
2013-2-27,32.0,30.6,29.0,30.0,29.2,28.0,96,94,91,29.84,29.63,13,4,13,0.02
2013-2-28,35.8,32.5,29.9,31.0,29.8,29.0,96,90,81,30.11,29.85,9,2,12,0.14